Location: Ferchesar
(52.6477°N, 12.4298°E)
Time: 08:58:46
(UTC+01:00)

Tiros 1 - Pass Details

Date: 08 December 2021
Orbit: 629 x 664 km, 48.4° (Epoch: 25 January)

Event Time Altitude Azimuth Distance (km) Brightness Sun altitude
Rises 16:27:18 0° 199° (SSW) 2,906 11.4 -4.7°
Reaches altitude 10° 16:30:31 10° 175° (S) 2,006 10.1 -5.1°
Maximum altitude 16:33:02 15° 142° (SE) 1,723 9.3 -5.5°
Drops below altitude 10° 16:35:35 10° 108° (ESE) 2,020 9.3 -5.8°
Enters shadow 16:37:47 - 91° (E) 2,609 9.7 -6.1°
Sets 16:38:50 0° 85° (E) 2,939 - -6.2°
